142  
ASUS43 KGLD 200408  
RWRGLD  
 
GOODLAND FORECAST AREA HOURLY WEATHER ROUNDUP  
NATIONAL WEATHER SERVICE GOODLAND KS  
1000 PM MDT FRI OCT 19 2018  
   
..OFFICIAL OBSERVATIONS
 
 
 
CITY SKY/WX TMP DP RH WIND PRES REMARKS
 
GOODLAND KS CLEAR 40 31 70 NW3 30.33R  
HILL CITY KS CLEAR 45 35 68 N10 30.29R  
IMPERIAL NEB CLEAR 39 28 64 SW5 30.32R  
MCCOOK NEB CLEAR 42 32 67 W5 30.30R  
AKRON CO CLEAR 44 28 53 S5 30.37R  
BURLINGTON CO CLEAR 36 28 73 W5 30.36R  
LIMON CO CLEAR 34 27 75 CALM 30.41R  

 
   
..UNOFFICIAL OBSERVATIONS
 
 
 
CITY SKY/WX TMP DP RH WIND PRES REMARKS
 
COLBY KS CLEAR 41 32 70 N7 30.34R  
SHARON SPRINGS N/A 40 29 64 CALM N/A  
KIT CARSON CO N/A 45 32 59 MISG N/A  
YUMA CO FAIR 34 28 80 W5 30.35R  

 
 
 
CLICK HERE TO GO TO PREVIOUS BULLETINS.

The Nexlab KS Page
The Nexlab CO Page
The Nexlab NE Page Main Text Page